Change the Weather History Date:

Thursday, March 8, 2012

  Actual Average Record
Temperature  
Mean Temperature 52 °F 37 °F  
Max Temperature 61 °F 45 °F 69 °F (1987)
Min Temperature 42 °F 29 °F 11 °F (1986)
Degree Days  
Heating Degree Days 13 28  
Month to date heating degree days 195 232  
Since 1 July heating degree days 3308 4119  
Cooling Degree Days 0 0  
Month to date cooling degree days 0 0  
Year to date cooling degree days 0 0  
Growing Degree Days 2 (Base 50)    
Moisture  
Dew Point 43 °F    
Average Humidity 71    
Maximum Humidity 86    
Minimum Humidity 55    
Precipitation  
Precipitation 0.00 in 0.13 in 0.91 in (1995)
Month to date precipitation 0.48 1.00  
Year to date precipitation 5.04 6.89  
Snow  
Snow 0.00 in 0.20 in 9.00 in (2013)
Month to date snowfall T 1.9  
Since 1 July snowfall 13.6 23.5  
Snow Depth 0.00 in    
Sea Level Pressure  
Sea Level Pressure 30.10 in    
Wind  
Wind Speed 14 mph (SSW)    
Max Wind Speed 24 mph    
Max Gust Speed 33 mph    
Visibility 10 miles    
Events      
T = Trace of Precipitation, MM = Missing Value Source: NWS Daily Summary

Daily Weather History Graph

Daily Weather History Graph

Search for Another Location

Airport or City:

Trip Planner

Search our weather history database for the weather conditions in past years. The results will help you decide how hot, cold, wet, or windy it might be!

Date:

Astronomy

Mar. 08, 2012 Rise Set
Actual Time 6:14 AM EST 5:51 PM EST
Civil Twilight 5:47 AM EST 6:19 PM EST
Nautical Twilight 5:15 AM EST 6:51 PM EST
Astronomical Twilight 4:43 AM EST 7:23 PM EST
Moon 6:37 PM EST (3/8) 5:56 AM EST (3/8)
Length of Visible Light 12h 31m
Length of Day
11h 36m
Full, 100% of the Moon is Illuminated
Mar 8
Full
Mar 14
Last Quarter
Mar 22
New
Mar 30
First Quarter
Apr 6
Full

Hourly Weather History & Observations

Time (EST) Temp. Windchill Dew Point Humidity Pressure Visibility Wind Dir Wind Speed Gust Speed Precip Events Conditions
12:52 AM 46.0 °F 43.9 °F 39.9 °F 79% 30.32 in 10.0 mi SW 4.6 mph - N/A   Clear
1:52 AM 44.1 °F - 37.9 °F 79% 30.31 in 10.0 mi Calm Calm - N/A   Clear
2:52 AM 46.0 °F 43.1 °F 39.9 °F 79% 30.29 in 10.0 mi SW 5.8 mph - N/A   Clear
3:52 AM 43.0 °F 41.3 °F 37.9 °F 82% 30.27 in 10.0 mi WSW 3.5 mph - N/A   Clear
4:52 AM 45.0 °F 42.6 °F 39.0 °F 80% 30.27 in 10.0 mi SW 4.6 mph - N/A   Clear
5:52 AM 46.0 °F 39.9 °F 41.0 °F 83% 30.25 in 10.0 mi SW 13.8 mph - N/A   Clear
6:52 AM 46.9 °F - 42.1 °F 83% 30.25 in 10.0 mi SSW 12.7 mph - N/A   Clear
7:52 AM 50.0 °F - 43.0 °F 77% 30.23 in 10.0 mi SSW 16.1 mph - N/A   Clear
8:52 AM 51.1 °F - 42.1 °F 71% 30.22 in 10.0 mi SW 9.2 mph - N/A   Clear
9:52 AM 55.0 °F - 44.1 °F 67% 30.20 in 10.0 mi SW 13.8 mph - N/A   Clear
10:52 AM 55.9 °F - 44.1 °F 64% 30.17 in 10.0 mi SSW 12.7 mph - N/A   Clear
11:52 AM 57.0 °F - 44.1 °F 62% 30.13 in 10.0 mi SSW 13.8 mph - N/A   Clear
12:52 PM 59.0 °F - 45.0 °F 60% 30.09 in 10.0 mi South 16.1 mph - N/A   Clear
1:52 PM 59.0 °F - 44.1 °F 58% 30.06 in 10.0 mi South 18.4 mph - N/A   Clear
2:52 PM 60.1 °F - 45.0 °F 57% 30.03 in 10.0 mi SSW 20.7 mph 28.8 mph N/A   Clear
3:52 PM 57.9 °F - 44.1 °F 60% 30.00 in 10.0 mi SSW 23.0 mph 29.9 mph N/A   Clear
4:52 PM 55.0 °F - 43.0 °F 64% 29.98 in 10.0 mi SSW 19.6 mph - N/A   Clear
5:52 PM 54.0 °F - 44.1 °F 69% 29.97 in 10.0 mi South 21.9 mph 29.9 mph N/A   Clear
6:52 PM 53.1 °F - 44.1 °F 71% 29.95 in 10.0 mi South 20.7 mph 27.6 mph N/A   Clear
7:52 PM 52.0 °F - 44.1 °F 74% 29.93 in 10.0 mi South 21.9 mph 27.6 mph N/A   Clear
8:52 PM 53.1 °F - 45.0 °F 74% 29.90 in 10.0 mi SSW 23.0 mph 33.4 mph N/A   Clear
9:52 PM 52.0 °F - 44.1 °F 74% 29.88 in 10.0 mi SW 13.8 mph 27.6 mph N/A   Clear
10:52 PM 50.0 °F - 43.0 °F 77% 29.86 in 10.0 mi WSW 6.9 mph - N/A   Overcast
11:52 PM 50.0 °F - 43.0 °F 77% 29.82 in 10.0 mi SW 12.7 mph - N/A   Overcast